Regional Weather Roundup
Issued by NWS Kansas City/Pleasant Hill, MO

Home | Current Version | Previous Version | Text Only | Print | Product List | Glossary On
Versions: 1 2 3 4 5 6 7 8 9 10 11 12 13 14 15 16 17 18 19 20 21 22 23 24 25 26 27
000
ASUS43 KEAX 301710
RWREAX

WEATHER ROUNDUP FOR EASTERN KANSAS AND NORTHWEST MISSOURI
NATIONAL WEATHER SERVICE KANSAS CITY/PLEASANT HILL MO
1200 PM CDT SAT APR 30 2016

KSZ040-057-103>105-MOZ028-029-037-043-301800-
...KANSAS CITY METROPOLITAN AREA...

CITY           SKY/WX    TMP DP  RH WIND       PRES   REMARKS
K.C. INTL      PTSUNNY   65  58  78 W17G26    29.67R
K.C. DOWNTOWN  PTSUNNY   66  57  72 W18G26    29.67R
LEES SUMMIT    PTSUNNY   69  59  70 SW22G30   29.67R
OLATHE - IXD   CLOUDY    60  54  80 SW17      29.72R
OLATHE - OJC   CLOUDY    58  53  84 SW14G22   29.71R
LAWRENCE       CLOUDY    60  53  77 W8        29.70R

$$

MOZ001>008-011>017-020>025-030>033-038>040-044>046-053-054-301800-
...NORTHERN AND CENTRAL MISSOURI...

CITY           SKY/WX    TMP DP  RH WIND       PRES   REMARKS
ST. JOSEPH     CLOUDY    59  57  93 S5        29.66S
MOSBY          PTSUNNY   64  63  94 CALM      29.66S
WARRENSBURG    MOSUNNY   70  59  68 SW16      29.67S
WHITEMAN AFB   MOSUNNY   71  62  71 W20       29.66S
CLINTON        PTSUNNY   70  57  64 SW20G31   29.70R
SEDALIA        PTSUNNY   73  62  68 SW18G24   29.68F
WARSAW         NOT AVBL
CHILLICOTHE      N/A     58  56  93 VRB3      29.69S
KIRKSVILLE     CLOUDY    54  52  93 E8        29.70F

$$

MOZ041-047>049-056>058-063>065-088>090-097-301800-
...EASTERN AND SOUTHERN MISSOURI...

CITY           SKY/WX    TMP DP  RH WIND       PRES   REMARKS
ST. LOUIS INTL CLOUDY    66  61  82 S9        29.75F
SPIRIT OF STL  CLOUDY    65  62  90 S7        29.74S
COLUMBIA       CLOUDY    68  64  87 S14       29.70S
JEFFERSON CITY CLOUDY    68  62  81 SW9       29.71R
ROLLA          CLOUDY    65  62  90 S10       29.73R
OSAGE BEACH    CLOUDY    70  57  64 S14       29.72S
SPRINGFIELD    CLOUDY    69  60  73 S14       29.73R
BRANSON        CLOUDY    68  61  77 SW5       29.77S
JOPLIN         PTSUNNY   67  59  75 SW14G21   29.75R
WEST PLAINS    CLOUDY    65  59  81 SW13      29.78R

$$

IAZ060-094-KSZ022-034>040-054-083-096-NEZ052-066-093-301800-
...KANSAS...SOUTHEAST NEBRASKA AND IOWA...

CITY           SKY/WX    TMP DP  RH WIND       PRES   REMARKS
TOPEKA         CLOUDY    57  50  77 SW8       29.70R
MANHATTAN      CLOUDY    55  47  74 SW12      29.72R
EMPORIA        CLOUDY    56  48  74 W16G23    29.73S
CHANUTE        CLOUDY    64  53  67 W13       29.76R
WICHITA        PTSUNNY   54  44  69 W17       29.79R
OMAHA          DRIZZLE   48  46  93 E8        29.72S FOG
LINCOLN        CLOUDY    49  47  93 NE13      29.72R FOG
FALLS CITY     CLOUDY    56  54  93 SE6       29.66R FOG
LAMONI         CLOUDY    50  49  96 E6        29.71R FOG
DES MOINES     LGT RAIN  48  45  89 NE12      29.77S FOG

$$





USA.gov is the U.S. government's official web portal to all federal, state and local government web resources and services.